Minnesota City, MN

4:43 PM CDT on August 27, 2016 (GMT -0500)
Winona Municipal-Conrad

Weather History for KONA - January, 2013

Change the Weather History Date:

Saturday, January 26, 2013

  Actual Average Record
Temperature  
Mean Temperature 14 °F -  
Max Temperature 26 °F 26 °F 53 °F (2002)
Min Temperature 1 °F 6 °F -16 °F (1997)
Degree Days  
Heating Degree Days 52    
Moisture  
Dew Point 4 °F    
Average Humidity 63    
Maximum Humidity 85    
Minimum Humidity 46    
Precipitation  
Precipitation 0.00 in - - ()
Sea Level Pressure  
Sea Level Pressure 30.30 in    
Wind  
Wind Speed 4 mph (SE)    
Max Wind Speed 10 mph    
Max Gust Speed 17 mph    
Visibility 10 miles    
Events      
Averages and records for this station are not official NWS values.
T = Trace of Precipitation, MM = Missing Value Source: NWS Daily Summary

Daily Weather History Graph

Daily Weather History Graph

Search for Another Location

Airport or City:

Trip Planner

Search our weather history database for the weather conditions in past years. The results will help you decide how hot, cold, wet, or windy it might be!

Date:

Astronomy

Jan. 26, 2013 Rise Set
Actual Time 7:30 AM CST 5:09 PM CST
Civil Twilight 6:59 AM CST 5:40 PM CST
Nautical Twilight 6:24 AM CST 6:15 PM CST
Astronomical Twilight 5:50 AM CST 6:49 PM CST
Moon 5:06 PM CST (1/26) 6:47 AM CST (1/26)
Length of Visible Light 10h 41m
Length of Day
9h 38m
Full, 100% of the Moon is Illuminated
Jan 26
Full
Jan 26
Full
Feb 3
Last Quarter
Feb 10
New
Feb 17
First Quarter

Hourly Weather History & Observations

Time (CST) Temp. Windchill Dew Point Humidity Pressure Visibility Wind Dir Wind Speed Gust Speed Precip Events Conditions
12:14 AM 8.6 °F -1.3 °F -0.4 °F 67% 30.30 in 10.0 mi WNW 5.8 mph - N/A   Clear
12:35 AM 8.6 °F -1.3 °F -0.4 °F 67% 30.30 in 10.0 mi WNW 5.8 mph - N/A   Clear
12:55 AM 8.6 °F -1.3 °F -0.4 °F 67% 30.30 in 10.0 mi NW 5.8 mph - N/A   Clear
1:14 AM 5.0 °F -4.1 °F -0.4 °F 78% 30.30 in 10.0 mi NW 4.6 mph - N/A   Clear
1:35 AM 8.6 °F 0.1 °F 1.4 °F 73% 30.30 in 10.0 mi WNW 4.6 mph - N/A   Clear
1:55 AM 5.0 °F -4.1 °F -0.4 °F 78% 30.31 in 10.0 mi NW 4.6 mph - N/A   Clear
2:14 AM 8.6 °F 2.0 °F 1.4 °F 73% 30.31 in 10.0 mi NW 3.5 mph - N/A   Clear
2:35 AM 8.6 °F - 1.4 °F 73% 30.32 in 10.0 mi Calm Calm - N/A   Clear
2:55 AM 8.6 °F - 1.4 °F 73% 30.32 in 10.0 mi Calm Calm - N/A   Clear
3:14 AM 5.0 °F - -0.4 °F 78% 30.32 in 10.0 mi Calm Calm - N/A   Clear
3:34 AM 5.0 °F - 1.4 °F 85% 30.32 in 10.0 mi Calm Calm - N/A   Clear
3:55 AM 5.0 °F - 1.4 °F 85% 30.32 in 10.0 mi Calm Calm - N/A   Clear
4:14 AM 3.2 °F -6.2 °F -0.4 °F 85% 30.32 in 10.0 mi NW 4.6 mph - N/A   Clear
4:34 AM 3.2 °F - -0.4 °F 85% 30.32 in 10.0 mi Calm Calm - N/A   Clear
4:55 AM 5.0 °F - -0.4 °F 78% 30.32 in 10.0 mi Calm Calm - N/A   Clear
5:14 AM 3.2 °F - -2.2 °F 78% 30.34 in 10.0 mi Calm Calm - N/A   Clear
5:34 AM 3.2 °F - -2.2 °F 78% 30.34 in 10.0 mi Calm Calm - N/A   Clear
5:55 AM 3.2 °F - -2.2 °F 78% 30.35 in 10.0 mi Calm Calm - N/A   Clear
6:14 AM 1.4 °F - -2.2 °F 85% 30.35 in 10.0 mi Calm Calm - N/A   Clear
6:35 AM 1.4 °F - -2.2 °F 85% 30.36 in 10.0 mi Calm Calm - N/A   Clear
6:55 AM 1.4 °F - -2.2 °F 85% 30.36 in 10.0 mi Calm Calm - N/A   Clear
7:14 AM 1.4 °F - -2.2 °F 85% 30.37 in 10.0 mi Calm Calm - N/A   Clear
7:35 AM 1.4 °F - -2.2 °F 85% 30.37 in 10.0 mi Calm Calm - N/A   Clear
7:55 AM 3.2 °F - -0.4 °F 85% 30.37 in 10.0 mi Calm Calm - N/A   Clear
8:14 AM 3.2 °F - -0.4 °F 85% 30.37 in 10.0 mi Calm Calm - N/A   Clear
8:35 AM 5.0 °F - 1.4 °F 85% 30.38 in 10.0 mi Calm Calm - N/A   Clear
8:55 AM 6.8 °F - 1.4 °F 79% 30.38 in 10.0 mi Calm Calm - N/A   Clear
9:14 AM 8.6 °F - 3.2 °F 79% 30.39 in 10.0 mi Calm Calm - N/A   Clear
9:35 AM 10.4 °F - 3.2 °F 73% 30.39 in 10.0 mi Calm Calm - N/A   Clear
9:55 AM 8.6 °F - 1.4 °F 73% 30.39 in 10.0 mi Calm Calm - N/A   Clear
10:14 AM 10.4 °F - 3.2 °F 73% 30.39 in 10.0 mi Calm Calm - N/A   Clear
10:55 AM 14.0 °F - 3.2 °F 62% 30.39 in 10.0 mi Calm Calm - N/A   Clear
11:14 AM 14.0 °F - 3.2 °F 62% 30.38 in 10.0 mi Calm Calm - N/A   Clear
11:35 AM 15.8 °F 10.2 °F 5.0 °F 62% 30.37 in 10.0 mi SE 3.5 mph - N/A   Clear
11:55 AM 19.4 °F 12.8 °F 5.0 °F 54% 30.36 in 10.0 mi ESE 4.6 mph - N/A   Clear
12:14 PM 19.4 °F 11.5 °F 5.0 °F 54% 30.35 in 10.0 mi East 5.8 mph - N/A   Clear
12:35 PM 19.4 °F 10.4 °F 5.0 °F 54% 30.33 in 10.0 mi ESE 6.9 mph - N/A   Clear
12:55 PM 21.2 °F 13.6 °F 5.0 °F 50% 30.33 in 10.0 mi SE 5.8 mph - N/A   Clear
1:14 PM 21.2 °F 11.7 °F 5.0 °F 50% 30.33 in 10.0 mi ESE 8.1 mph - N/A   Clear
1:35 PM 23.0 °F 14.7 °F 5.0 °F 46% 30.31 in 10.0 mi ESE 6.9 mph - N/A   Clear
1:54 PM 23.0 °F 13.1 °F 5.0 °F 46% 30.30 in 10.0 mi ESE 9.2 mph - N/A   Clear
2:15 PM 23.0 °F 13.9 °F 5.0 °F 46% 30.30 in 10.0 mi ESE 8.1 mph - N/A   Scattered Clouds
2:34 PM 23.0 °F 13.9 °F 5.0 °F 46% 30.30 in 10.0 mi ESE 8.1 mph - N/A   Overcast
2:55 PM 23.0 °F 13.9 °F 5.0 °F 46% 30.29 in 10.0 mi SE 8.1 mph - N/A   Overcast
3:34 PM 23.0 °F 17.0 °F 5.0 °F 46% 30.29 in 10.0 mi SSE 4.6 mph - N/A   Overcast
3:55 PM 23.0 °F - 5.0 °F 46% 30.28 in 10.0 mi Calm Calm - N/A   Overcast
4:14 PM 23.0 °F 13.1 °F 5.0 °F 46% 30.27 in 10.0 mi SE 9.2 mph - N/A   Overcast
4:34 PM 23.0 °F 13.9 °F 5.0 °F 46% 30.27 in 10.0 mi SE 8.1 mph - N/A   Overcast
4:55 PM 23.0 °F 14.7 °F 5.0 °F 46% 30.27 in 10.0 mi SE 6.9 mph - N/A   Mostly Cloudy
5:15 PM 23.0 °F 14.7 °F 5.0 °F 46% 30.26 in 10.0 mi SE 6.9 mph - N/A   Mostly Cloudy
5:34 PM 23.0 °F 13.1 °F 6.8 °F 50% 30.25 in 10.0 mi SE 9.2 mph - N/A   Mostly Cloudy
5:55 PM 23.0 °F 13.9 °F 6.8 °F 50% 30.25 in 10.0 mi SE 8.1 mph - N/A   Mostly Cloudy
6:15 PM 23.0 °F 14.7 °F 6.8 °F 50% 30.26 in 10.0 mi SE 6.9 mph - N/A   Scattered Clouds
6:34 PM 23.0 °F 13.1 °F 6.8 °F 50% 30.26 in 10.0 mi SE 9.2 mph - N/A   Clear
6:55 PM 23.0 °F 13.1 °F 6.8 °F 50% 30.25 in 10.0 mi SE 9.2 mph - N/A   Scattered Clouds
7:15 PM 23.0 °F 13.9 °F 6.8 °F 50% 30.25 in 10.0 mi SSE 8.1 mph - N/A   Scattered Clouds
7:34 PM 23.0 °F 12.4 °F 6.8 °F 50% 30.22 in 10.0 mi SE 10.4 mph - N/A   Scattered Clouds
7:55 PM 24.8 °F 16.1 °F 8.6 °F 50% 30.22 in 10.0 mi SSE 8.1 mph 17.3 mph N/A   Mostly Cloudy
8:14 PM 24.8 °F 17.9 °F 8.6 °F 50% 30.23 in 10.0 mi SSE 5.8 mph - N/A   Mostly Cloudy
8:35 PM 26.6 °F 19.1 °F 8.6 °F 47% 30.22 in 10.0 mi SSE 6.9 mph - N/A   Mostly Cloudy
8:54 PM 26.6 °F 19.1 °F 8.6 °F 47% 30.23 in 10.0 mi SSE 6.9 mph - N/A   Mostly Cloudy
9:14 PM 26.6 °F 19.1 °F 8.6 °F 47% 30.23 in 10.0 mi SE 6.9 mph - N/A   Mostly Cloudy
9:35 PM 26.6 °F 20.0 °F 8.6 °F 47% 30.22 in 10.0 mi SSE 5.8 mph - N/A   Scattered Clouds
9:54 PM 26.6 °F 19.1 °F 8.6 °F 47% 30.22 in 10.0 mi SE 6.9 mph - N/A   Scattered Clouds
10:14 PM 26.6 °F 20.0 °F 10.4 °F 51% 30.22 in 10.0 mi SE 5.8 mph - N/A   Scattered Clouds
10:35 PM 26.6 °F 20.0 °F 10.4 °F 51% 30.22 in 10.0 mi SSE 5.8 mph - N/A   Mostly Cloudy
10:54 PM 26.6 °F 19.1 °F 10.4 °F 51% 30.21 in 10.0 mi SSE 6.9 mph - N/A   Mostly Cloudy
11:14 PM 26.6 °F 21.2 °F 10.4 °F 51% 30.22 in 10.0 mi SE 4.6 mph - N/A   Mostly Cloudy
11:35 PM 26.6 °F 21.2 °F 10.4 °F 51% 30.22 in 10.0 mi SSE 4.6 mph - N/A   Mostly Cloudy
11:54 PM 26.6 °F 22.6 °F 10.4 °F 51% 30.22 in 10.0 mi SE 3.5 mph - N/A   Overcast